Roswell, NM

12:43 PM MST on February 25, 2018 (GMT -0700)
Roswell Industrial

Weather History for KROW - September, 2013

Change the Weather History Date:

Monday, September 16, 2013

  Actual Average Record
Temperature  
Mean Temperature 75 °F 72 °F  
Max Temperature 85 °F 86 °F 101 °F (2015)
Min Temperature 64 °F 59 °F 44 °F (1961)
Degree Days  
Heating Degree Days 0 0  
Month to date heating degree days 0 0  
Since 1 July heating degree days 0 0  
Cooling Degree Days 10 7  
Month to date cooling degree days 188 153  
Year to date cooling degree days 2052 1677  
Growing Degree Days 24 (Base 50)    
Moisture  
Dew Point 61 °F    
Average Humidity 64    
Maximum Humidity 87    
Minimum Humidity 40    
Precipitation  
Precipitation 0.14 in 0.05 in 2.92 in (1923)
Month to date precipitation 3.63 0.87  
Year to date precipitation 8.23 9.80  
Sea Level Pressure  
Sea Level Pressure 30.00 in    
Wind  
Wind Speed 7 mph (SE)    
Max Wind Speed 24 mph    
Max Gust Speed 29 mph    
Visibility 10 miles    
Events Rain , Thunderstorm    
T = Trace of Precipitation, MM = Missing Value Source: NWS Daily Summary

Daily Weather History Graph

Daily Weather History Graph

Search for Another Location

Airport or City:

Trip Planner

Search our weather history database for the weather conditions in past years. The results will help you decide how hot, cold, wet, or windy it might be!

Date:

Astronomy

Sep. 16, 2013 Rise Set
Actual Time 6:42 AM MDT 7:02 PM MDT
Civil Twilight 6:17 AM MDT 7:27 PM MDT
Nautical Twilight 5:48 AM MDT 7:56 PM MDT
Astronomical Twilight 5:19 AM MDT 8:25 PM MDT
Moon 5:07 PM MDT (9/16) 3:38 AM MDT (9/16)
Length of Visible Light 13h 09m
Length of Day
12h 20m
Waxing Gibbous, 90% of the Moon is Illuminated
Sep 16
Waxing Gibbous
Sep 19
Full
Sep 26
Last Quarter
Oct 4
New
Oct 11
First Quarter

Hourly Weather History & Observations

Time (MDT) Temp. Heat Index Dew Point Humidity Pressure Visibility Wind Dir Wind Speed Gust Speed Precip Events Conditions
12:51 AM 66.9 °F - 61.0 °F 81% 29.95 in 10.0 mi Calm Calm - N/A   Partly Cloudy
1:51 AM 66.0 °F - 60.1 °F 81% 29.95 in 10.0 mi WNW 4.6 mph - N/A   Clear
2:51 AM 66.0 °F - 60.1 °F 81% 29.96 in 10.0 mi NW 8.1 mph - N/A   Partly Cloudy
3:51 AM 66.0 °F - 60.1 °F 81% 29.95 in 10.0 mi NNW 8.1 mph - 0.00 in   Partly Cloudy
4:51 AM 66.0 °F - 61.0 °F 84% 29.98 in 10.0 mi North 6.9 mph - N/A   Partly Cloudy
5:51 AM 66.0 °F - 62.1 °F 87% 29.99 in 10.0 mi North 6.9 mph - N/A   Scattered Clouds
6:51 AM 64.0 °F - 61.0 °F 90% 30.02 in 10.0 mi North 6.9 mph - N/A   Partly Cloudy
7:51 AM 66.9 °F - 61.0 °F 81% 30.05 in 10.0 mi North 5.8 mph - N/A   Overcast
8:51 AM 70.0 °F - 61.0 °F 73% 30.04 in 10.0 mi Calm Calm - N/A   Clear
9:51 AM 72.0 °F - 62.1 °F 71% 30.06 in 10.0 mi Calm Calm - N/A   Mostly Cloudy
10:51 AM 73.9 °F - 62.1 °F 66% 30.06 in 10.0 mi Calm Calm - N/A   Clear
11:51 AM 78.1 °F - 62.1 °F 58% 30.04 in 10.0 mi Calm Calm - N/A   Partly Cloudy
12:51 PM 78.1 °F - 60.1 °F 54% 30.02 in 10.0 mi SE 5.8 mph - N/A   Scattered Clouds
1:51 PM 80.1 °F 80.7 °F 59.0 °F 48% 29.99 in 10.0 mi WSW 5.8 mph - N/A   Scattered Clouds
2:51 PM 82.0 °F 82.0 °F 57.9 °F 44% 29.95 in 10.0 mi Variable 5.8 mph - N/A   Partly Cloudy
3:51 PM 84.0 °F 83.5 °F 57.9 °F 41% 29.92 in 10.0 mi South 10.4 mph - N/A   Partly Cloudy
4:51 PM 84.0 °F 83.3 °F 57.0 °F 40% 29.90 in 10.0 mi South 9.2 mph - N/A   Scattered Clouds
5:51 PM 84.0 °F 83.3 °F 57.0 °F 40% 29.91 in 10.0 mi SSE 10.4 mph - N/A   Scattered Clouds
6:51 PM 79.0 °F - 59.0 °F 50% 29.93 in 10.0 mi South 5.8 mph - N/A   Scattered Clouds
7:51 PM 75.9 °F - 61.0 °F 60% 29.94 in 10.0 mi East 6.9 mph - N/A   Scattered Clouds
8:42 PM 75.2 °F - 62.6 °F 65% 30.13 in 10.0 mi East 5.8 mph - N/A Thunderstorm Mostly Cloudy
8:51 PM 75.0 °F - 62.1 °F 64% 29.97 in 10.0 mi ESE 6.9 mph - N/A Thunderstorm Thunderstorm
9:51 PM 68.0 °F - 64.9 °F 90% 30.02 in 10.0 mi SE 16.1 mph 20.7 mph 0.02 in Rain , Thunderstorm Light Rain
10:11 PM 69.8 °F - 64.4 °F 83% 30.18 in 10.0 mi SE 12.7 mph - 0.00 in   Overcast
10:51 PM 66.9 °F - 63.0 °F 87% 30.02 in 10.0 mi SE 15.0 mph - 0.00 in   Overcast
11:51 PM 66.9 °F - 62.1 °F 84% 30.02 in 10.0 mi SE 15.0 mph - 0.11 in Rain Light Rain